Regional Weather Roundup
Issued by NWS

Home | Current Version | Previous Version | Graphics & Text | Print | Product List | Glossary On
Versions: 1 2 3 4 5 6 7 8 9 10 11 12 13 14 15 16 17 18 19 20 21 22 23 24 25 26 27 28 29 30 31 32 33 34 35 36 37 38 39 40 41 42 43 44 45 46 47 48 49 50
000
ASUS45 KPSR 110100
RWRAZ

PRELIMINARY ARIZONA REGIONAL HOURLY WEATHER ROUNDUP
NATIONAL WEATHER SERVICE PHOENIX AZ
600 PM MST THU JUL 10 2014

NOTE: FAIR INDICATES FEW OR NO CLOUDS BELOW 12,000 FEET WITH NO
SIGNIFICANT WEATHER AND/OR OBSTRUCTIONS TO VISIBILITY.

AZZ001>003-036-110200-
NORTHWEST ARIZONA

CITY           SKY/WX    TMP DP  RH WIND       PRES   REMARKS
KINGMAN        PTSUNNY   72  63  73 CALM      30.02F
$$

AZZ004>008-015-016-018-110200-
NORTH CENTRAL ARIZONA

CITY           SKY/WX    TMP DP  RH WIND       PRES   REMARKS
GRAND CANYON   CLOUDY    66  58  75 VRB3      30.22S
WILLIAMS         N/A     63  57  82 CALM      30.29F
PRESCOTT       TSTM      69  62  78 NW8       30.12R
FLAGSTAFF      MOSUNNY   67  51  56 W8G18     30.24R
PAYSON         MOSUNNY   86  52  30 W12G17    30.09R
PAGE           LGT RAIN  81  56  42 SW8       30.00R
$$

AZZ009>014-017-110200-
NORTHEAST ARIZONA

CITY           SKY/WX    TMP DP  RH WIND       PRES   REMARKS
WINSLOW        NOT AVBL
SAINT JOHNS    CLOUDY    79  50  36 SW8       30.07F
WINDOW ROCK    PTSUNNY   80  46  30 SW23G33   30.15R
$$

AZZ023-110200-
GREATER PHOENIX AREA

CITY           SKY/WX    TMP DP  RH WIND       PRES   REMARKS
PHOENIX        MOSUNNY  102  57  22 W13       29.74F HX 101
LUKE AFB       NOT AVBL
DEER VALLEY    SUNNY     98  57  25 W7G18     29.77S
SCOTTSDALE     SUNNY    100  56  23 W9        29.79S
MESA-FALCON    MOSUNNY  100  59  25 SW7       29.77  HX 100
MESA-GATEWAY   MOSUNNY  100  54  20 W10       29.79F
$$

AZZ027-028-110200-
SOUTHWEST MARICOPA COUNTY AND PINAL COUNTY

CITY           SKY/WX    TMP DP  RH WIND       PRES   REMARKS
CASA GRANDE    PTSUNNY   99  61  28 W12       29.81R
GILA BEND      PTCLDY   102  55  21 W13       29.76F HX 101
$$

AZZ503-504-507>509-110200-
SOUTHEAST ARIZONA

CITY           SKY/WX    TMP DP  RH WIND       PRES   REMARKS
TUCSON         PTSUNNY   92  58  31 W17G25    29.89S
DAVIS-MONTHAN  CLOUDY    92  59  32 NW12      29.88S
RYAN FIELD       N/A     91  61  35 W13G20    29.89S
NOGALES        PTSUNNY   89  59  36 W14G20    29.99S
SIERRA VISTA   PTSUNNY   81  55  41 NW16      30.05R
SAFFORD        FAIR      96  51  21 NW18      29.85S
$$

AZZ020-021-025-026-031-110200-
SOUTHWEST ARIZONA

CITY           SKY/WX    TMP DP  RH WIND       PRES   REMARKS
YUMA           NOT AVBL
$$

CAZ031-033-041-043-047-048-061-110200-
SOUTHERN CALIFORNIA

CITY           SKY/WX    TMP DP  RH WIND       PRES   REMARKS
DOWNTOWN L.A.  SUNNY     75  61  61 W7        29.89S
L.A. AIRPORT   MOSUNNY   71  60  68 W14       29.90F
SAN DIEGO      MOSUNNY   74  61  63 NW10      29.92S
BURBANK        SUNNY     80  56  43 S9        29.88S
ONTARIO        MOSUNNY   87  55  33 W15       29.87S
RIVERSIDE      SUNNY     86  52  30 W13G23    29.86F
PALM SPRINGS   SUNNY    104  45  13 NW14G26   29.72S HX 100
EL CENTRO NAS  SUNNY    106  35   8 W23       29.69S
IMPERIAL       SUNNY    103  43  13 W17       29.68S
BLYTHE         SUNNY    106  31   7 SW13      29.70F
$$

NVZ020-UTZ003-110200-
SOUTHERN NEVADA-UTAH

CITY           SKY/WX    TMP DP  RH WIND       PRES   REMARKS
LAS VEGAS      NOT AVBL
SALT LAKE CITY PTSUNNY   90  51  26 E5        29.89F
$$

NMZ009-TXZ055-110200-
NEW MEXICO-WEST TEXAS

CITY           SKY/WX    TMP DP  RH WIND       PRES   REMARKS
ALBUQUERQUE    PTSUNNY   76  53  44 W17       30.08R
EL PASO        PTSUNNY   93  48  21 E5        29.92S
$$


........................KEY........................
SKY/WX - SKY CONDITION/WEATHER
TMP    - TEMPERATURE IN FAHRENHEIT
DP     - DEW POINT IN FAHRENHEIT
RH     - RELATIVE HUMIDITY IN PERCENT
WIND   - DIRECTION AND SPEED IN MILES PER HOUR (MPH)
VRB    - VARIABLE WIND DIRECTION
PRES   - MEAN SEA LEVEL PRESSURE IN INCHES OF MERCURY
         F - FALLING PRESSURE   R - RISING PRESSURE
         S - STEADY PRESSURE
VSB    - VISIBILITY IN MILES
HX     - HEAT INDEX IN FAHRENHEIT
WCI    - WIND CHILL INDEX IN FAHRENHEIT
TC     - TEMPERATURE IN CELSIUS WHICH IS ALSO KNOWN AS
         TEMPERATURE IN CENTIGRADE
AFB    - AIR FORCE BASE
         LUKE AFB IS LUKE AIR FORCE BASE
         DAVIS-MONTHAN IS DAVIS-MONTHAN AIR FORCE BASE
NAS    - NAVAL AIR STATION
         EL CENTRO NAS IS EL CENTRO NAVAL AIR STATION
N/A    - NOT AVAILABLE


USA.gov is the U.S. government's official web portal to all federal, state and local government web resources and services.